Norwood, MA

2:49 AM EDT on July 21, 2017 (GMT -0400)
Norwood Memorial

Weather History for KOWD - November, 2013

Change the Weather History Date:

Saturday, November 30, 2013

  Actual Average Record
Temperature  
Mean Temperature 26 °F -  
Max Temperature 35 °F 44 °F 69 °F (2006)
Min Temperature 17 °F 26 °F 17 °F (1996)
Degree Days  
Heating Degree Days 39    
Moisture  
Dew Point 14 °F    
Average Humidity 62    
Maximum Humidity 78    
Minimum Humidity 42    
Precipitation  
Precipitation 0.00 in - - ()
Sea Level Pressure  
Sea Level Pressure 30.67 in    
Wind  
Wind Speed 2 mph (NNW)    
Max Wind Speed 7 mph    
Max Gust Speed -    
Visibility 10 miles    
Events      
Averages and records for this station are not official NWS values.
T = Trace of Precipitation, MM = Missing Value Source: NWS Daily Summary

Daily Weather History Graph

Daily Weather History Graph

Search for Another Location

Airport or City:

Trip Planner

Search our weather history database for the weather conditions in past years. The results will help you decide how hot, cold, wet, or windy it might be!

Date:

Astronomy

Nov. 30, 2013 Rise Set
Actual Time 6:52 AM EST 4:13 PM EST
Civil Twilight 6:21 AM EST 4:45 PM EST
Nautical Twilight 5:46 AM EST 5:19 PM EST
Astronomical Twilight 5:13 AM EST 5:53 PM EST
Moon 3:57 AM EST (11/30) 2:38 PM EST (11/30)
Length of Visible Light 10h 23m
Length of Day
9h 20m
Waning Crescent, 7% of the Moon is Illuminated
Nov 30
Waning Crescent
Dec 2
New
Dec 9
First Quarter
Dec 17
Full
Dec 25
Last Quarter

Hourly Weather History & Observations

Time (EST) Temp. Windchill Dew Point Humidity Pressure Visibility Wind Dir Wind Speed Gust Speed Precip Events Conditions
12:53 AM 19.9 °F 13.4 °F 7.0 °F 57% 30.74 in 10.0 mi NNW 4.6 mph - N/A   Clear
1:53 AM 19.0 °F - 8.1 °F 62% 30.76 in 10.0 mi Calm Calm - N/A   Clear
2:53 AM 18.0 °F 12.7 °F 9.0 °F 68% 30.76 in 10.0 mi NW 3.5 mph - N/A   Clear
3:53 AM 18.0 °F - 8.1 °F 65% 30.76 in 10.0 mi Calm Calm - N/A   Clear
4:53 AM 17.1 °F - 8.1 °F 68% 30.77 in 10.0 mi Calm Calm - N/A   Clear
5:53 AM 17.1 °F - 8.1 °F 68% 30.78 in 10.0 mi Calm Calm - N/A   Clear
6:53 AM 17.1 °F - 9.0 °F 71% 30.79 in 10.0 mi Calm Calm - N/A   Clear
7:53 AM 19.0 °F - 10.0 °F 68% 30.79 in 10.0 mi Calm Calm - N/A   Clear
8:53 AM 23.0 °F 15.8 °F 10.0 °F 58% 30.80 in 10.0 mi NNW 5.8 mph - N/A   Clear
9:53 AM 27.0 °F 19.5 °F 10.0 °F 49% 30.78 in 10.0 mi NNW 6.9 mph - N/A   Clear
10:53 AM 30.9 °F 27.5 °F 12.9 °F 47% 30.75 in 10.0 mi Variable 3.5 mph - N/A   Clear
11:53 AM 32.0 °F - 16.0 °F 52% 30.72 in 10.0 mi Calm Calm - N/A   Clear
12:53 PM 33.1 °F 30.0 °F 17.1 °F 52% 30.69 in 10.0 mi SE 3.5 mph - N/A   Scattered Clouds
1:53 PM 34.0 °F 31.0 °F 15.1 °F 46% 30.66 in 10.0 mi Variable 3.5 mph - N/A   Mostly Cloudy
2:53 PM 35.1 °F 32.2 °F 15.1 °F 44% 30.64 in 10.0 mi Variable 3.5 mph - N/A   Clear
3:53 PM 33.1 °F 30.0 °F 12.0 °F 42% 30.62 in 10.0 mi South 3.5 mph - N/A   Clear
4:53 PM 30.9 °F - 12.9 °F 47% 30.61 in 10.0 mi Calm Calm - N/A   Clear
5:53 PM 28.0 °F - 17.1 °F 63% 30.60 in 10.0 mi Calm Calm - N/A   Clear
6:53 PM 26.1 °F - 19.0 °F 75% 30.58 in 10.0 mi Calm Calm - N/A   Scattered Clouds
7:53 PM 25.0 °F - 19.0 °F 78% 30.56 in 10.0 mi Calm Calm - N/A   Mostly Cloudy
8:53 PM 27.0 °F - 19.9 °F 75% 30.54 in 10.0 mi Calm Calm - N/A   Mostly Cloudy
9:53 PM 27.0 °F - 19.9 °F 75% 30.51 in 10.0 mi Calm Calm - N/A   Partly Cloudy
10:53 PM 28.0 °F - 21.9 °F 78% 30.49 in 10.0 mi Calm Calm - N/A   Mostly Cloudy
11:53 PM 28.9 °F - 23.0 °F 78% 30.45 in 10.0 mi Calm Calm - N/A   Overcast